Date String (YYYY-MM-DD hh:mm:ss) UTC,Instrument flags,Ambient pressure (hPa),Sample flow (lpm),Bypass flow (lpm),Sample temperature (°C),Ambient temperature (°C),ASC tube jacket temperature (°C),LED temperature (°C),Box temperature (°C),Sample RH (%),Span deviation,Mass concentration (μg/m³),Mass concentration (μg/m³),Mass concentration (μg/m³)
DateTimeUTC,F1_M11,P_M11,Q1_M11,Q2_M11,T1_M11,T2_M11,T3_M11,T4_M11,T5_M11,U1_M11,ZSPAN_M11,X0_M11,X2_M11,X1_M11
2021-12-05 06:00:00,,0821.0,5.01,0.00,27.2,26.2,00.0,36.4,29.0,08.1,0000.0,0005.98,0001.12,0000.49
2021-12-05 06:01:00,,0820.9,5.00,0.00,27.2,26.2,00.0,36.3,29.0,08.1,0000.0,0007.28,0001.20,0000.50
2021-12-05 06:02:00,,0820.9,4.99,0.00,27.2,26.2,00.0,36.3,29.0,08.0,0000.0,0008.37,0001.24,0000.50
2021-12-05 06:03:00,,0820.9,5.00,0.00,27.2,26.2,00.0,36.3,29.0,08.0,0000.0,0008.55,0001.24,0000.50
2021-12-05 06:04:00,,0820.8,5.01,0.00,27.2,26.2,00.0,36.3,28.9,08.0,0000.0,0008.76,0001.34,0000.51
2021-12-05 06:05:00,,0820.7,5.00,0.00,27.2,26.3,00.0,36.3,28.9,07.9,0000.0,0008.80,0001.39,0000.52
2021-12-05 06:06:00,,0820.5,5.01,0.00,27.2,26.3,00.0,36.3,28.9,08.0,0000.0,0008.60,0001.40,0000.51
2021-12-05 06:07:00,,0820.5,4.99,0.00,27.2,26.3,00.0,36.3,28.9,08.0,0000.0,0008.30,0001.36,0000.51
2021-12-05 06:08:00,,0820.4,5.02,0.00,27.2,26.2,00.0,36.3,28.9,08.1,0000.0,0009.84,0001.72,0000.54
2021-12-05 06:09:00,,0820.4,4.99,0.00,27.2,26.2,00.0,36.3,28.9,08.2,0000.0,0011.92,0002.15,0000.56
2021-12-05 06:10:00,,0820.5,5.00,0.00,27.2,26.1,00.0,36.3,28.9,08.2,0000.0,0012.95,0002.26,0000.57
2021-12-05 06:11:00,,0820.6,5.01,0.00,27.2,26.1,00.0,36.3,28.9,07.9,0000.0,0013.57,0002.29,0000.57
2021-12-05 06:12:00,,0820.5,5.00,0.00,27.2,26.1,00.0,36.2,28.9,07.6,0000.0,0012.91,0002.23,0000.56
2021-12-05 06:13:00,,0820.5,5.00,0.00,27.2,26.1,00.0,36.2,28.9,07.6,0000.0,0012.10,0002.25,0000.56
2021-12-05 06:14:00,,0820.7,5.01,0.00,27.2,26.1,00.0,36.2,28.9,07.7,0000.0,0012.22,0002.35,0000.56
2021-12-05 06:15:00,,0820.7,4.99,0.00,27.1,26.1,00.0,36.2,28.9,08.1,0000.0,0013.34,0002.33,0000.56
2021-12-05 06:16:00,,0820.6,4.99,0.00,27.1,26.1,00.0,36.2,28.9,08.1,0000.0,0013.59,0002.30,0000.56
2021-12-05 06:17:00,,0820.6,5.01,0.00,27.1,26.1,00.0,36.2,28.9,07.8,0000.0,0014.28,0002.30,0000.57
2021-12-05 06:18:00,,0820.6,5.01,0.00,27.1,26.1,00.0,36.2,28.9,07.7,0000.0,0014.32,0002.35,0000.58
2021-12-05 06:19:00,,0820.8,4.98,0.00,27.1,26.0,00.0,36.2,28.8,07.8,0000.0,0012.06,0001.95,0000.55
2021-12-05 06:20:00,,0820.9,5.00,0.00,27.1,26.0,00.0,36.2,28.8,07.8,0000.0,0009.42,0001.45,0000.52
2021-12-05 06:21:00,,0821.0,5.00,0.00,27.1,26.0,00.0,36.2,28.8,07.9,0000.0,0008.75,0001.27,0000.51
2021-12-05 06:22:00,,0821.1,5.01,0.00,27.1,26.1,00.0,36.2,28.8,07.9,0000.0,0008.31,0001.26,0000.50
2021-12-05 06:23:00,,0821.1,4.99,0.00,27.1,26.0,00.0,36.2,28.8,07.8,0000.0,0008.03,0001.24,0000.51
2021-12-05 06:24:00,,0821.2,5.02,0.00,27.0,26.0,00.0,36.1,28.7,07.9,0000.0,0008.16,0001.21,0000.50
2021-12-05 06:25:00,,0821.2,4.99,0.00,27.0,26.0,00.0,36.1,28.7,07.9,0000.0,0008.11,0001.11,0000.50
2021-12-05 06:26:00,,0821.2,5.01,0.00,27.0,26.0,00.0,36.1,28.6,07.9,0000.0,0006.30,0001.05,0000.50
2021-12-05 06:27:00,,0821.2,4.99,0.00,27.0,26.0,00.0,36.1,28.6,07.9,0000.0,0005.68,0001.01,0000.50
2021-12-05 06:28:00,,0821.3,5.02,0.00,27.0,25.9,00.0,36.1,28.7,07.9,0000.0,0004.17,0000.96,0000.49
2021-12-05 06:29:00,,0821.1,4.99,0.00,27.0,25.9,00.0,36.1,28.6,08.0,0000.0,0003.84,0000.86,0000.48
2021-12-05 06:30:00,,0821.2,5.02,0.00,26.9,25.9,00.0,36.1,28.6,08.3,0000.0,0003.65,0000.81,0000.47
2021-12-05 06:31:00,,0821.2,4.98,0.00,26.9,25.9,00.0,36.0,28.5,08.4,0000.0,0003.60,0000.80,0000.47
2021-12-05 06:32:00,,0821.1,5.00,0.00,26.9,25.9,00.0,36.0,28.5,08.2,0000.0,0002.64,0000.80,0000.47
2021-12-05 06:33:00,,0821.1,5.00,0.00,26.9,25.9,00.0,36.0,28.6,07.9,0000.0,0002.13,0000.78,0000.47
2021-12-05 06:34:00,,0821.1,5.01,0.00,26.9,25.9,00.0,36.0,28.6,08.0,0000.0,0002.07,0000.77,0000.47
2021-12-05 06:35:00,,0821.2,5.00,0.00,26.9,25.9,00.0,36.0,28.6,08.2,0000.0,0001.59,0000.75,0000.47
2021-12-05 06:36:00,,0821.1,5.00,0.00,26.9,25.9,00.0,36.0,28.6,08.3,0000.0,0001.21,0000.74,0000.47
2021-12-05 06:37:00,,0821.2,4.99,0.00,26.9,25.9,00.0,36.0,28.6,08.0,0000.0,0001.30,0000.77,0000.47
2021-12-05 06:38:00,,0821.2,5.00,0.00,26.9,25.9,00.0,36.0,28.5,07.8,0000.0,0001.67,0000.81,0000.47
2021-12-05 06:39:00,,0821.1,5.00,0.00,26.9,25.9,00.0,36.0,28.5,08.0,0000.0,0002.40,0000.83,0000.47
2021-12-05 06:40:00,,0821.1,5.02,0.00,26.8,25.9,00.0,36.0,28.5,08.0,0000.0,0002.38,0000.84,0000.48
2021-12-05 06:41:00,,0821.0,5.00,0.00,26.8,25.9,00.0,35.9,28.5,08.0,0000.0,0002.30,0000.80,0000.47
2021-12-05 06:42:00,,0820.8,5.00,0.00,26.8,25.9,00.0,35.9,28.5,08.0,0000.0,0002.35,0000.80,0000.48
2021-12-05 06:43:00,,0820.9,5.01,0.00,26.8,25.9,00.0,35.9,28.5,07.9,0000.0,0002.53,0000.84,0000.48
2021-12-05 06:44:00,,0820.9,5.00,0.00,26.8,25.9,00.0,35.9,28.5,07.9,0000.0,0002.58,0000.84,0000.47
2021-12-05 06:45:00,,0821.0,4.99,0.00,26.8,25.8,00.0,35.9,28.5,08.2,0000.0,0002.68,0000.87,0000.48
2021-12-05 06:46:00,,0821.0,5.00,0.00,26.8,25.8,00.0,35.9,28.5,08.1,0000.0,0002.75,0000.91,0000.48
2021-12-05 06:47:00,,0820.9,5.00,0.00,26.8,25.8,00.0,35.9,28.4,08.0,0000.0,0003.05,0000.91,0000.48
2021-12-05 06:48:00,,0820.9,5.00,0.00,26.7,25.8,00.0,35.9,28.4,08.2,0000.0,0003.05,0000.91,0000.48
2021-12-05 06:49:00,,0821.0,5.01,0.00,26.7,25.8,00.0,35.9,28.4,08.2,0000.0,0003.40,0000.91,0000.48
2021-12-05 06:50:00,,0820.9,5.00,0.00,26.7,25.8,00.0,35.9,28.4,08.3,0000.0,0003.82,0000.95,0000.48
2021-12-05 06:51:00,,0820.9,4.99,0.00,26.7,25.7,00.0,35.8,28.4,08.5,0000.0,0004.09,0000.99,0000.48
2021-12-05 06:52:00,,0820.9,5.02,0.00,26.7,25.7,00.0,35.8,28.4,08.7,0000.0,0004.16,0001.01,0000.48
2021-12-05 06:53:00,,0821.0,5.01,0.00,26.7,25.7,00.0,35.8,28.4,08.6,0000.0,0005.31,0001.00,0000.48
2021-12-05 06:54:00,,0820.9,4.99,0.00,26.6,25.7,00.0,35.8,28.3,08.7,0000.0,0005.22,0000.97,0000.49
2021-12-05 06:55:00,,0820.9,5.01,0.00,26.6,25.6,00.0,35.8,28.3,08.9,0000.0,0005.28,0001.00,0000.50
2021-12-05 06:56:00,,0820.9,5.00,0.00,26.6,25.6,00.0,35.8,28.2,09.0,0000.0,0005.46,0001.02,0000.51
2021-12-05 06:57:00,,0820.9,5.01,0.00,26.6,25.6,00.0,35.7,28.2,09.1,0000.0,0005.99,0001.04,0000.51
2021-12-05 06:58:00,,0820.9,4.99,0.00,26.6,25.6,00.0,35.7,28.3,09.2,0000.0,0005.86,0001.05,0000.51
2021-12-05 06:59:00,,0820.9,4.99,0.00,26.5,25.5,00.0,35.7,28.2,09.3,0000.0,0005.87,0001.06,0000.52
